Time,TemperatureF,DewpointF,PressureIn,WindDirection,WindDirectionDegrees,WindSpeedMPH,WindSpeedGustMPH,Humidity,HourlyPrecipIn,Conditions,Clouds,dailyrainin,SoftwareType,DateUTC
2013-06-25 00:00:00,70.9,41.0,29.87,WSW,238,0.0,0.0,34,0.00,,,-99.99,Weather View 32 v60,2013-06-25 04:00:00,
2013-06-25 00:05:00,70.7,40.9,29.87,WSW,238,0.0,0.0,34,0.00,,,-99.99,Weather View 32 v60,2013-06-25 04:05:00,
2013-06-25 00:10:00,70.5,40.7,29.87,WSW,238,0.0,0.0,34,0.00,,,-99.99,Weather View 32 v60,2013-06-25 04:10:00,
2013-06-25 00:15:00,70.2,40.4,29.87,WSW,238,0.0,0.0,34,0.00,,,-99.99,Weather View 32 v60,2013-06-25 04:15:00,
2013-06-25 00:20:00,70.0,41.0,29.87,WSW,238,0.0,0.0,35,0.00,,,-99.99,Weather View 32 v60,2013-06-25 04:20:00,
2013-06-25 00:25:00,69.8,40.8,29.87,WSW,238,0.0,0.0,35,0.00,,,-99.99,Weather View 32 v60,2013-06-25 04:25:00,
2013-06-25 00:30:00,69.6,40.7,29.87,WSW,238,0.0,0.0,35,0.00,,,-99.99,Weather View 32 v60,2013-06-25 04:30:00,
2013-06-25 00:35:00,69.6,41.4,29.87,WSW,238,0.0,0.0,36,0.00,,,-99.99,Weather View 32 v60,2013-06-25 04:35:00,
2013-06-25 00:40:00,69.4,41.3,29.87,WSW,238,0.0,0.0,36,0.00,,,-99.99,Weather View 32 v60,2013-06-25 04:40:00,
2013-06-25 00:45:00,69.3,41.8,29.87,WSW,238,0.0,0.0,37,0.00,,,-99.99,Weather View 32 v60,2013-06-25 04:45:00,
2013-06-25 00:55:00,69.1,41.6,29.87,WSW,238,0.0,0.0,37,0.00,,,-99.99,Weather View 32 v60,2013-06-25 04:55:00,
2013-06-25 01:00:00,69.1,43.0,29.87,WSW,238,0.0,0.0,39,0.00,,,-99.99,Weather View 32 v60,2013-06-25 05:00:00,
2013-06-25 01:05:00,68.9,42.9,29.87,WSW,238,0.0,0.0,39,0.00,,,-99.99,Weather View 32 v60,2013-06-25 05:05:00,
2013-06-25 01:10:00,68.9,44.2,29.87,WSW,238,0.0,0.0,41,0.00,,,-99.99,Weather View 32 v60,2013-06-25 05:10:00,
2013-06-25 01:15:00,68.9,44.2,29.87,WSW,238,0.0,0.0,41,0.00,,,-99.99,Weather View 32 v60,2013-06-25 05:15:00,
2013-06-25 01:20:00,68.7,43.4,29.87,WSW,238,0.0,0.0,40,0.00,,,-99.99,Weather View 32 v60,2013-06-25 05:20:00,
2013-06-25 01:25:00,68.7,43.4,29.87,WSW,238,0.0,0.0,40,0.00,,,-99.99,Weather View 32 v60,2013-06-25 05:25:00,
2013-06-25 01:30:00,68.7,42.7,29.87,WSW,238,0.0,0.0,39,0.00,,,-99.99,Weather View 32 v60,2013-06-25 05:30:00,
2013-06-25 01:45:00,68.9,43.5,29.87,WSW,248,3.0,6.0,40,0.00,,,-99.99,Weather View 32 v60,2013-06-25 05:45:00,
2013-06-25 02:00:00,69.3,46.4,29.87,WSW,247,0.0,6.0,44,0.00,,,-99.99,Weather View 32 v60,2013-06-25 06:00:00,
2013-06-25 02:05:00,69.6,47.3,29.87,WSW,243,0.0,6.0,45,0.00,,,-99.99,Weather View 32 v60,2013-06-25 06:05:00,
2013-06-25 02:15:00,69.8,48.0,29.87,SW,233,0.0,6.0,46,0.00,,,-99.99,Weather View 32 v60,2013-06-25 06:15:00,
2013-06-25 02:20:00,70.0,48.2,29.84,SW,233,0.0,6.0,46,0.00,,,-99.99,Weather View 32 v60,2013-06-25 06:20:00,
2013-06-25 02:25:00,70.0,47.6,29.84,SW,233,0.0,6.0,45,0.00,,,-99.99,Weather View 32 v60,2013-06-25 06:25:00,
2013-06-25 02:30:00,70.0,47.0,29.84,SW,233,0.0,6.0,44,0.00,,,-99.99,Weather View 32 v60,2013-06-25 06:30:00,
2013-06-25 02:40:00,69.8,46.2,29.87,SW,233,0.0,4.0,43,0.00,,,-99.99,Weather View 32 v60,2013-06-25 06:40:00,
2013-06-25 02:45:00,69.8,46.2,29.87,SW,233,0.0,0.0,43,0.00,,,-99.99,Weather View 32 v60,2013-06-25 06:45:00,
2013-06-25 02:50:00,69.6,46.1,29.87,SW,233,0.0,0.0,43,0.00,,,-99.99,Weather View 32 v60,2013-06-25 06:50:00,
2013-06-25 02:55:00,69.6,46.1,29.87,SW,233,0.0,0.0,43,0.00,,,-99.99,Weather View 32 v60,2013-06-25 06:55:00,
2013-06-25 03:00:00,69.6,46.7,29.87,SW,233,0.0,0.0,44,0.00,,,-99.99,Weather View 32 v60,2013-06-25 07:00:00,
2013-06-25 03:05:00,69.4,46.5,29.87,SW,233,0.0,0.0,44,0.00,,,-99.99,Weather View 32 v60,2013-06-25 07:05:00,
2013-06-25 03:10:00,69.4,46.5,29.87,SW,233,0.0,0.0,44,0.00,,,-99.99,Weather View 32 v60,2013-06-25 07:10:00,
2013-06-25 03:15:00,69.4,45.9,29.87,SW,233,0.0,0.0,43,0.00,,,-99.99,Weather View 32 v60,2013-06-25 07:15:00,
2013-06-25 03:20:00,69.4,45.9,29.87,West,260,0.0,0.0,43,0.00,,,-99.99,Weather View 32 v60,2013-06-25 07:20:00,
2013-06-25 03:30:00,69.4,45.9,29.87,West,260,0.0,0.0,43,0.00,,,-99.99,Weather View 32 v60,2013-06-25 07:30:00,
2013-06-25 03:35:00,69.4,45.9,29.87,WNW,285,0.0,0.0,43,0.00,,,-99.99,Weather View 32 v60,2013-06-25 07:35:00,
2013-06-25 03:40:00,69.4,46.5,29.87,WSW,243,0.0,3.0,44,0.00,,,-99.99,Weather View 32 v60,2013-06-25 07:40:00,
2013-06-25 03:55:00,69.6,46.7,29.84,West,276,0.0,3.0,44,0.00,,,-99.99,Weather View 32 v60,2013-06-25 07:55:00,
2013-06-25 04:00:00,69.6,46.7,29.84,West,276,0.0,3.0,44,0.00,,,-99.99,Weather View 32 v60,2013-06-25 08:00:00,
2013-06-25 04:10:00,69.6,46.7,29.84,West,281,0.0,3.0,44,0.00,,,-99.99,Weather View 32 v60,2013-06-25 08:10:00,
2013-06-25 04:15:00,69.6,46.7,29.84,WSW,237,0.0,4.0,44,0.00,,,-99.99,Weather View 32 v60,2013-06-25 08:15:00,
2013-06-25 04:20:00,69.8,46.2,29.84,WNW,285,3.0,4.0,43,0.00,,,-99.99,Weather View 32 v60,2013-06-25 08:20:00,
2013-06-25 04:25:00,69.8,46.8,29.84,West,266,2.0,4.0,44,0.00,,,-99.99,Weather View 32 v60,2013-06-25 08:25:00,
2013-06-25 04:30:00,69.8,46.8,29.84,West,262,3.0,6.0,44,0.00,,,-99.99,Weather View 32 v60,2013-06-25 08:30:00,
2013-06-25 04:40:00,69.8,46.2,29.84,SW,233,4.0,6.0,43,0.00,,,-99.99,Weather View 32 v60,2013-06-25 08:40:00,
2013-06-25 04:50:00,69.8,46.2,29.84,WNW,284,4.0,6.0,43,0.00,,,-99.99,Weather View 32 v60,2013-06-25 08:50:00,
2013-06-25 04:55:00,69.6,46.1,29.87,WSW,243,0.0,6.0,43,0.00,,,-99.99,Weather View 32 v60,2013-06-25 08:55:00,
2013-06-25 05:00:00,69.6,46.1,29.87,SW,222,0.0,6.0,43,0.00,,,-99.99,Weather View 32 v60,2013-06-25 09:00:00,
2013-06-25 05:05:00,69.6,46.1,29.84,WSW,256,0.0,6.0,43,0.00,,,-99.99,Weather View 32 v60,2013-06-25 09:05:00,
2013-06-25 05:10:00,0.0,0.0,29.84,WSW,238,2.0,6.0,0,0.00,,,-99.99,Weather View 32 v60,2013-06-25 09:10:00,
2013-06-25 05:15:00,69.6,46.1,29.84,West,274,4.0,6.0,43,0.00,,,-99.99,Weather View 32 v60,2013-06-25 09:15:00,
2013-06-25 05:25:00,69.4,46.5,29.84,SSW,212,0.0,6.0,44,0.00,,,-99.99,Weather View 32 v60,2013-06-25 09:25:00,
2013-06-25 05:30:00,69.4,46.5,29.84,West,259,0.0,6.0,44,0.00,,,-99.99,Weather View 32 v60,2013-06-25 09:30:00,
2013-06-25 05:35:00,69.4,46.5,29.84,West,268,3.0,6.0,44,0.00,,,-99.99,Weather View 32 v60,2013-06-25 09:35:00,
2013-06-25 05:40:00,69.4,46.5,29.84,West,277,0.0,6.0,44,0.00,,,-99.99,Weather View 32 v60,2013-06-25 09:40:00,
2013-06-25 05:45:00,69.3,46.4,29.84,SW,220,0.0,6.0,44,0.00,,,-99.99,Weather View 32 v60,2013-06-25 09:45:00,
2013-06-25 05:50:00,69.3,46.4,29.87,WSW,257,3.0,6.0,44,0.00,,,-99.99,Weather View 32 v60,2013-06-25 09:50:00,
2013-06-25 05:55:00,69.3,46.4,29.87,WNW,283,3.0,6.0,44,0.00,,,-99.99,Weather View 32 v60,2013-06-25 09:55:00,
2013-06-25 06:05:00,69.1,46.8,29.87,NW,322,3.0,6.0,45,0.00,,,-99.99,Weather View 32 v60,2013-06-25 10:05:00,
2013-06-25 06:10:00,69.1,46.8,29.87,WSW,239,0.0,6.0,45,0.00,,,-99.99,Weather View 32 v60,2013-06-25 10:10:00,
2013-06-25 06:15:00,69.1,46.8,29.87,WSW,252,2.0,6.0,45,0.00,,,-99.99,Weather View 32 v60,2013-06-25 10:15:00,
2013-06-25 06:20:00,69.1,47.4,29.87,WSW,243,3.0,6.0,46,0.00,,,-99.99,Weather View 32 v60,2013-06-25 10:20:00,
2013-06-25 06:30:00,69.1,47.4,29.87,SSW,213,4.0,6.0,46,0.00,,,-99.99,Weather View 32 v60,2013-06-25 10:30:00,
2013-06-25 06:35:00,69.1,47.4,29.87,SW,227,0.0,6.0,46,0.00,,,-99.99,Weather View 32 v60,2013-06-25 10:35:00,
2013-06-25 06:40:00,69.1,47.4,29.87,WSW,240,0.0,6.0,46,0.00,,,-99.99,Weather View 32 v60,2013-06-25 10:40:00,
2013-06-25 06:50:00,69.1,47.9,29.90,SW,230,0.0,6.0,47,0.00,,,-99.99,Weather View 32 v60,2013-06-25 10:50:00,
2013-06-25 06:55:00,69.1,47.9,29.90,WNW,288,0.0,6.0,47,0.00,,,-99.99,Weather View 32 v60,2013-06-25 10:55:00,
2013-06-25 07:05:00,69.1,47.9,29.90,WSW,255,0.0,6.0,47,0.00,,,-99.99,Weather View 32 v60,2013-06-25 11:05:00,
2013-06-25 07:10:00,69.1,47.9,29.90,SW,223,4.0,6.0,47,0.00,,,-99.99,Weather View 32 v60,2013-06-25 11:10:00,
2013-06-25 07:15:00,69.1,47.9,29.90,WSW,251,0.0,6.0,47,0.00,,,-99.99,Weather View 32 v60,2013-06-25 11:15:00,
2013-06-25 07:20:00,69.1,48.5,29.87,SW,230,4.0,8.0,48,0.00,,,-99.99,Weather View 32 v60,2013-06-25 11:20:00,
2013-06-25 07:25:00,69.1,48.5,29.87,SW,235,0.0,8.0,48,0.00,,,-99.99,Weather View 32 v60,2013-06-25 11:25:00,
2013-06-25 07:30:00,69.3,48.7,29.87,SW,224,6.0,8.0,48,0.00,,,-99.99,Weather View 32 v60,2013-06-25 11:30:00,
2013-06-25 07:35:00,69.3,48.7,29.87,WSW,258,8.0,8.0,48,0.00,,,-99.99,Weather View 32 v60,2013-06-25 11:35:00,
2013-06-25 07:40:00,69.3,48.7,29.87,WSW,254,4.0,8.0,48,0.00,,,-99.99,Weather View 32 v60,2013-06-25 11:40:00,
2013-06-25 07:45:00,69.3,48.7,29.87,WNW,284,3.0,8.0,48,0.00,,,-99.99,Weather View 32 v60,2013-06-25 11:45:00,
2013-06-25 07:50:00,69.4,48.8,29.87,WSW,251,0.0,8.0,48,0.00,,,-99.99,Weather View 32 v60,2013-06-25 11:50:00,
2013-06-25 07:55:00,69.4,48.8,29.87,WSW,244,4.0,8.0,48,0.00,,,-99.99,Weather View 32 v60,2013-06-25 11:55:00,
2013-06-25 08:00:00,69.4,48.8,29.87,SSW,195,5.0,8.0,48,0.00,,,-99.99,Weather View 32 v60,2013-06-25 12:00:00,
2013-06-25 08:05:00,69.4,48.8,29.90,SW,223,5.0,8.0,48,0.00,,,-99.99,Weather View 32 v60,2013-06-25 12:05:00,
2013-06-25 08:10:00,69.4,49.4,29.90,SW,227,4.0,8.0,49,0.00,,,-99.99,Weather View 32 v60,2013-06-25 12:10:00,
2013-06-25 08:15:00,69.4,49.4,29.90,WSW,252,4.0,8.0,49,0.00,,,-99.99,Weather View 32 v60,2013-06-25 12:15:00,
2013-06-25 08:20:00,69.4,49.9,29.90,SW,227,0.0,8.0,50,0.00,,,-99.99,Weather View 32 v60,2013-06-25 12:20:00,
2013-06-25 08:25:00,69.4,49.9,29.90,West,260,3.0,8.0,50,0.00,,,-99.99,Weather View 32 v60,2013-06-25 12:25:00,
2013-06-25 08:30:00,69.3,49.8,29.90,West,269,0.0,8.0,50,0.00,,,-99.99,Weather View 32 v60,2013-06-25 12:30:00,
2013-06-25 08:35:00,69.3,49.2,29.90,West,270,0.0,8.0,49,0.00,,,-99.99,Weather View 32 v60,2013-06-25 12:35:00,
2013-06-25 08:40:00,69.3,49.2,29.90,WNW,282,3.0,8.0,49,0.00,,,-99.99,Weather View 32 v60,2013-06-25 12:40:00,
2013-06-25 08:45:00,69.3,49.8,29.90,West,263,0.0,8.0,50,0.00,,,-99.99,Weather View 32 v60,2013-06-25 12:45:00,
2013-06-25 08:50:00,69.3,49.8,29.87,WNW,285,3.0,8.0,50,0.00,,,-99.99,Weather View 32 v60,2013-06-25 12:50:00,
2013-06-25 08:55:00,69.3,50.3,29.87,WNW,285,0.0,8.0,51,0.00,,,-99.99,Weather View 32 v60,2013-06-25 12:55:00,
2013-06-25 09:00:00,69.3,50.8,29.87,SW,219,0.0,8.0,52,0.00,,,-99.99,Weather View 32 v60,2013-06-25 13:00:00,
2013-06-25 09:05:00,69.3,50.8,29.87,SW,219,0.0,8.0,52,0.00,,,-99.99,Weather View 32 v60,2013-06-25 13:05:00,
2013-06-25 09:10:00,69.3,51.3,29.87,SW,219,0.0,8.0,53,0.00,,,-99.99,Weather View 32 v60,2013-06-25 13:10:00,
2013-06-25 09:15:00,69.3,51.9,29.87,South,183,0.0,8.0,54,0.00,,,-99.99,Weather View 32 v60,2013-06-25 13:15:00,
2013-06-25 09:20:00,69.4,52.5,29.87,WSW,239,0.0,8.0,55,0.00,,,-99.99,Weather View 32 v60,2013-06-25 13:20:00,
2013-06-25 09:25:00,69.4,52.5,29.87,WSW,249,0.0,8.0,55,0.00,,,-99.99,Weather View 32 v60,2013-06-25 13:25:00,
2013-06-25 09:30:00,69.6,53.2,29.87,SW,224,4.0,8.0,56,0.00,,,-99.99,Weather View 32 v60,2013-06-25 13:30:00,
2013-06-25 09:38:00,69.6,53.2,29.87,SSW,195,4.0,8.0,56,0.00,,,-99.99,Weather View 32 v60,2013-06-25 13:38:00,
2013-06-25 09:45:00,70.0,53.5,29.87,ENE,58,0.0,8.0,56,0.00,,,-99.99,Weather View 32 v60,2013-06-25 13:45:00,
2013-06-25 09:50:00,70.2,53.7,29.84,ESE,123,0.0,6.0,56,0.00,,,-99.99,Weather View 32 v60,2013-06-25 13:50:00,
2013-06-25 09:55:00,70.3,53.9,29.84,WSW,249,0.0,6.0,56,0.00,,,-99.99,Weather View 32 v60,2013-06-25 13:55:00,
2013-06-25 10:00:00,70.5,54.0,29.84,South,169,0.0,6.0,56,0.00,,,-99.99,Weather View 32 v60,2013-06-25 14:00:00,
2013-06-25 10:10:00,70.9,53.9,29.84,SSE,156,4.0,6.0,55,0.00,,,-99.99,Weather View 32 v60,2013-06-25 14:10:00,
2013-06-25 10:15:00,71.1,54.0,29.84,WSW,239,3.0,9.0,55,0.00,,,-99.99,Weather View 32 v60,2013-06-25 14:15:00,
2013-06-25 10:20:00,71.2,54.2,29.87,South,176,3.0,9.0,55,0.00,,,-99.99,Weather View 32 v60,2013-06-25 14:20:00,
2013-06-25 10:25:00,71.6,54.5,29.87,South,178,4.0,9.0,55,0.00,,,-99.99,Weather View 32 v60,2013-06-25 14:25:00,
2013-06-25 10:30:00,71.8,54.2,29.87,West,265,4.0,9.0,54,0.00,,,-99.99,Weather View 32 v60,2013-06-25 14:30:00,
2013-06-25 10:35:00,72.0,53.8,29.87,WSW,257,4.0,9.0,53,0.00,,,-99.99,Weather View 32 v60,2013-06-25 14:35:00,
2013-06-25 10:45:00,72.3,53.1,29.87,SSE,168,4.0,9.0,51,0.00,,,-99.99,Weather View 32 v60,2013-06-25 14:45:00,
2013-06-25 10:50:00,72.3,52.6,29.87,WSW,256,6.0,9.0,50,0.00,,,-99.99,Weather View 32 v60,2013-06-25 14:50:00,
2013-06-25 10:55:00,72.5,52.7,29.87,West,261,5.0,9.0,50,0.00,,,-99.99,Weather View 32 v60,2013-06-25 14:55:00,
2013-06-25 11:00:00,72.7,52.4,29.87,WSW,257,5.0,9.0,49,0.00,,,-99.99,Weather View 32 v60,2013-06-25 15:00:00,
2013-06-25 11:05:00,72.7,51.8,29.87,West,270,8.0,11.0,48,0.00,,,-99.99,Weather View 32 v60,2013-06-25 15:05:00,
2013-06-25 11:10:00,72.9,52.0,29.87,West,265,9.0,11.0,48,0.00,,,-99.99,Weather View 32 v60,2013-06-25 15:10:00,
2013-06-25 11:15:00,72.9,50.8,29.87,WNW,284,8.0,12.0,46,0.00,,,-99.99,Weather View 32 v60,2013-06-25 15:15:00,
2013-06-25 11:20:00,73.0,51.6,29.87,WNW,300,7.0,12.0,47,0.00,,,-99.99,Weather View 32 v60,2013-06-25 15:20:00,
2013-06-25 11:25:00,73.2,51.1,29.87,West,266,8.0,12.0,46,0.00,,,-99.99,Weather View 32 v60,2013-06-25 15:25:00,
2013-06-25 11:30:00,73.4,51.3,29.87,West,278,7.0,12.0,46,0.00,,,-99.99,Weather View 32 v60,2013-06-25 15:30:00,
2013-06-25 11:35:00,73.6,50.9,29.87,WNW,283,8.0,12.0,45,0.00,,,-99.99,Weather View 32 v60,2013-06-25 15:35:00,
2013-06-25 11:40:00,73.8,50.4,29.87,WNW,300,8.0,14.0,44,0.00,,,-99.99,Weather View 32 v60,2013-06-25 15:40:00,
2013-06-25 11:45:00,74.1,50.1,29.87,WNW,286,6.0,14.0,43,0.00,,,-99.99,Weather View 32 v60,2013-06-25 15:45:00,
2013-06-25 11:50:00,74.5,50.5,29.87,WNW,298,9.0,14.0,43,0.00,,,-99.99,Weather View 32 v60,2013-06-25 15:50:00,
2013-06-25 11:55:00,74.5,50.5,29.87,West,277,6.0,14.0,43,0.00,,,-99.99,Weather View 32 v60,2013-06-25 15:55:00,
2013-06-25 12:00:00,74.7,50.0,29.87,WNW,298,10.0,14.0,42,0.00,,,-99.99,Weather View 32 v60,2013-06-25 16:00:00,
2013-06-25 12:05:00,74.7,50.0,29.87,West,265,9.0,14.0,42,0.00,,,-99.99,Weather View 32 v60,2013-06-25 16:05:00,
2013-06-25 12:10:00,74.8,49.5,29.87,WNW,300,8.0,14.0,41,0.00,,,-99.99,Weather View 32 v60,2013-06-25 16:10:00,
2013-06-25 12:15:00,75.2,48.5,29.87,WNW,283,10.0,15.0,39,0.00,,,-99.99,Weather View 32 v60,2013-06-25 16:15:00,
2013-06-25 12:20:00,75.4,49.3,29.87,WSW,257,8.0,15.0,40,0.00,,,-99.99,Weather View 32 v60,2013-06-25 16:20:00,
2013-06-25 12:25:00,75.6,49.5,29.87,West,269,8.0,15.0,40,0.00,,,-99.99,Weather View 32 v60,2013-06-25 16:25:00,
2013-06-25 12:30:00,75.6,48.1,29.87,WSW,250,5.0,15.0,38,0.00,,,-99.99,Weather View 32 v60,2013-06-25 16:30:00,
2013-06-25 12:35:00,75.7,48.9,29.90,WNW,285,6.0,15.0,39,0.00,,,-99.99,Weather View 32 v60,2013-06-25 16:35:00,
2013-06-25 12:40:00,75.9,49.1,29.90,WNW,286,12.0,15.0,39,0.00,,,-99.99,Weather View 32 v60,2013-06-25 16:40:00,
2013-06-25 12:50:00,76.1,47.1,29.90,NW,305,11.0,15.0,36,0.00,,,-99.99,Weather View 32 v60,2013-06-25 16:50:00,
2013-06-25 12:55:00,76.1,47.1,29.90,West,275,11.0,15.0,36,0.00,,,-99.99,Weather View 32 v60,2013-06-25 16:55:00,
2013-06-25 13:00:00,75.9,46.2,29.90,West,260,13.0,15.0,35,0.00,,,-99.99,Weather View 32 v60,2013-06-25 17:00:00,
2013-06-25 13:05:00,75.9,46.2,29.90,WNW,296,6.0,17.0,35,0.00,,,-99.99,Weather View 32 v60,2013-06-25 17:05:00,
2013-06-25 13:10:00,75.7,46.1,29.90,West,261,5.0,17.0,35,0.00,,,-99.99,Weather View 32 v60,2013-06-25 17:10:00,
2013-06-25 13:20:00,75.4,45.0,29.87,WNW,300,8.0,17.0,34,0.00,,,-99.99,Weather View 32 v60,2013-06-25 17:20:00,
2013-06-25 13:25:00,75.2,44.8,29.87,WSW,252,5.0,17.0,34,0.00,,,-99.99,Weather View 32 v60,2013-06-25 17:25:00,
2013-06-25 13:30:00,75.0,45.4,29.87,West,260,3.0,17.0,35,0.00,,,-99.99,Weather View 32 v60,2013-06-25 17:30:00,
2013-06-25 13:35:00,75.0,45.4,29.84,WSW,254,4.0,17.0,35,0.00,,,-99.99,Weather View 32 v60,2013-06-25 17:35:00,
2013-06-25 13:40:00,74.8,45.3,29.84,WSW,255,5.0,17.0,35,0.00,,,-99.99,Weather View 32 v60,2013-06-25 17:40:00,
2013-06-25 13:45:00,74.8,46.0,29.84,WSW,245,3.0,17.0,36,0.00,,,-99.99,Weather View 32 v60,2013-06-25 17:45:00,
2013-06-25 13:50:00,74.7,45.9,29.84,SW,230,3.0,17.0,36,0.00,,,-99.99,Weather View 32 v60,2013-06-25 17:50:00,
2013-06-25 13:55:00,74.7,45.9,29.84,SW,233,6.0,17.0,36,0.00,,,-99.99,Weather View 32 v60,2013-06-25 17:55:00,
2013-06-25 14:05:00,74.5,45.7,29.84,WNW,284,5.0,15.0,36,0.00,,,-99.99,Weather View 32 v60,2013-06-25 18:05:00,
2013-06-25 14:10:00,74.5,45.7,29.84,NW,304,4.0,15.0,36,0.00,,,-99.99,Weather View 32 v60,2013-06-25 18:10:00,
2013-06-25 14:15:00,74.5,45.7,29.84,WSW,237,5.0,13.0,36,0.00,,,-99.99,Weather View 32 v60,2013-06-25 18:15:00,
2013-06-25 14:20:00,74.5,45.7,29.81,West,275,0.0,10.0,36,0.00,,,-99.99,Weather View 32 v60,2013-06-25 18:20:00,
2013-06-25 14:25:00,74.5,45.7,29.81,West,278,5.0,7.0,36,0.00,,,-99.99,Weather View 32 v60,2013-06-25 18:25:00,
2013-06-25 14:35:00,74.5,45.7,29.81,WNW,283,5.0,7.0,36,0.00,,,-99.99,Weather View 32 v60,2013-06-25 18:35:00,
2013-06-25 14:40:00,74.7,45.9,29.81,WNW,285,8.0,8.0,36,0.00,,,-99.99,Weather View 32 v60,2013-06-25 18:40:00,
2013-06-25 14:45:00,74.8,46.0,29.81,West,278,7.0,9.0,36,0.00,,,-99.99,Weather View 32 v60,2013-06-25 18:45:00,
2013-06-25 14:50:00,75.0,46.2,29.84,WNW,294,5.0,9.0,36,0.00,,,-99.99,Weather View 32 v60,2013-06-25 18:50:00,
2013-06-25 14:55:00,75.0,46.2,29.84,West,279,4.0,9.0,36,0.00,,,-99.99,Weather View 32 v60,2013-06-25 18:55:00,
2013-06-25 15:00:00,75.2,45.6,29.84,SW,227,3.0,9.0,35,0.00,,,-99.99,Weather View 32 v60,2013-06-25 19:00:00,
2013-06-25 15:05:00,75.4,45.7,29.84,SSW,206,3.0,9.0,35,0.00,,,-99.99,Weather View 32 v60,2013-06-25 19:05:00,
2013-06-25 15:10:00,75.4,45.7,29.84,West,273,5.0,9.0,35,0.00,,,-99.99,Weather View 32 v60,2013-06-25 19:10:00,
2013-06-25 15:15:00,75.4,45.7,29.84,West,259,6.0,9.0,35,0.00,,,-99.99,Weather View 32 v60,2013-06-25 19:15:00,
2013-06-25 15:20:00,75.6,45.9,29.84,SW,233,5.0,9.0,35,0.00,,,-99.99,Weather View 32 v60,2013-06-25 19:20:00,
2013-06-25 15:30:00,75.9,46.2,29.84,WNW,296,4.0,9.0,35,0.00,,,-99.99,Weather View 32 v60,2013-06-25 19:30:00,
2013-06-25 15:35:00,75.9,46.2,29.84,WSW,238,4.0,10.0,35,0.00,,,-99.99,Weather View 32 v60,2013-06-25 19:35:00,
2013-06-25 15:40:00,76.1,46.4,29.84,WSW,256,6.0,11.0,35,0.00,,,-99.99,Weather View 32 v60,2013-06-25 19:40:00,
2013-06-25 15:45:00,76.1,46.4,29.84,WSW,253,8.0,11.0,35,0.00,,,-99.99,Weather View 32 v60,2013-06-25 19:45:00,
2013-06-25 15:50:00,76.1,46.4,29.84,WSW,258,12.0,13.0,35,0.00,,,-99.99,Weather View 32 v60,2013-06-25 19:50:00,
2013-06-25 15:55:00,76.1,45.6,29.84,West,261,5.0,13.0,34,0.00,,,-99.99,Weather View 32 v60,2013-06-25 19:55:00,
2013-06-25 16:00:00,76.1,46.4,29.84,West,276,9.0,15.0,35,0.00,,,-99.99,Weather View 32 v60,2013-06-25 20:00:00,
2013-06-25 16:10:00,76.1,45.6,29.84,West,274,9.0,15.0,34,0.00,,,-99.99,Weather View 32 v60,2013-06-25 20:10:00,
2013-06-25 16:15:00,76.3,46.5,29.84,WNW,294,5.0,15.0,35,0.00,,,-99.99,Weather View 32 v60,2013-06-25 20:15:00,
2013-06-25 16:20:00,76.5,45.9,29.84,WNW,303,8.0,15.0,34,0.00,,,-99.99,Weather View 32 v60,2013-06-25 20:20:00,
2013-06-25 16:25:00,76.6,46.1,29.84,West,280,5.0,15.0,34,0.00,,,-99.99,Weather View 32 v60,2013-06-25 20:25:00,
2013-06-25 16:30:00,76.8,46.2,29.84,WSW,257,8.0,15.0,34,0.00,,,-99.99,Weather View 32 v60,2013-06-25 20:30:00,
2013-06-25 16:40:00,77.0,45.6,29.84,West,280,8.0,15.0,33,0.00,,,-99.99,Weather View 32 v60,2013-06-25 20:40:00,
2013-06-25 16:45:00,77.2,45.0,29.84,West,260,8.0,15.0,32,0.00,,,-99.99,Weather View 32 v60,2013-06-25 20:45:00,
2013-06-25 16:50:00,77.4,45.9,29.84,WNW,291,8.0,15.0,33,0.00,,,-99.99,Weather View 32 v60,2013-06-25 20:50:00,
2013-06-25 16:55:00,77.5,45.3,29.84,WSW,241,8.0,15.0,32,0.00,,,-99.99,Weather View 32 v60,2013-06-25 20:55:00,
2013-06-25 17:00:00,77.5,45.3,29.84,WNW,293,10.0,15.0,32,0.00,,,-99.99,Weather View 32 v60,2013-06-25 21:00:00,
2013-06-25 17:05:00,77.5,45.3,29.84,West,275,8.0,15.0,32,0.00,,,-99.99,Weather View 32 v60,2013-06-25 21:05:00,
2013-06-25 17:15:00,77.9,44.7,29.84,WSW,242,6.0,15.0,31,0.00,,,-99.99,Weather View 32 v60,2013-06-25 21:15:00,
2013-06-25 17:20:00,78.1,44.9,29.84,WNW,292,5.0,13.0,31,0.00,,,-99.99,Weather View 32 v60,2013-06-25 21:20:00,
2013-06-25 17:25:00,78.1,44.9,29.84,WNW,290,6.0,13.0,31,0.00,,,-99.99,Weather View 32 v60,2013-06-25 21:25:00,
2013-06-25 17:30:00,77.9,44.7,29.84,West,276,8.0,13.0,31,0.00,,,-99.99,Weather View 32 v60,2013-06-25 21:30:00,
2013-06-25 17:35:00,77.9,44.7,29.84,WNW,290,8.0,13.0,31,0.00,,,-99.99,Weather View 32 v60,2013-06-25 21:35:00,
2013-06-25 17:40:00,78.1,45.7,29.84,WNW,288,9.0,13.0,32,0.00,,,-99.99,Weather View 32 v60,2013-06-25 21:40:00,
2013-06-25 17:45:00,78.3,45.1,29.84,West,269,8.0,13.0,31,0.00,,,-99.99,Weather View 32 v60,2013-06-25 21:45:00,
2013-06-25 17:55:00,78.4,45.2,29.84,WNW,302,6.0,13.0,31,0.00,,,-99.99,Weather View 32 v60,2013-06-25 21:55:00,
2013-06-25 18:00:00,78.6,45.4,29.84,West,278,8.0,13.0,31,0.00,,,-99.99,Weather View 32 v60,2013-06-25 22:00:00,
2013-06-25 18:05:00,78.4,45.2,29.84,West,273,8.0,13.0,31,0.00,,,-99.99,Weather View 32 v60,2013-06-25 22:05:00,
2013-06-25 18:10:00,78.4,45.2,29.84,WSW,255,4.0,13.0,31,0.00,,,-99.99,Weather View 32 v60,2013-06-25 22:10:00,
2013-06-25 18:15:00,78.4,45.2,29.84,WNW,298,4.0,13.0,31,0.00,,,-99.99,Weather View 32 v60,2013-06-25 22:15:00,
2013-06-25 18:20:00,78.4,45.2,29.84,WSW,246,5.0,13.0,31,0.00,,,-99.99,Weather View 32 v60,2013-06-25 22:20:00,
2013-06-25 18:25:00,78.4,45.2,29.84,SW,227,6.0,13.0,31,0.00,,,-99.99,Weather View 32 v60,2013-06-25 22:25:00,
2013-06-25 18:35:00,78.6,45.4,29.81,WNW,282,6.0,13.0,31,0.00,,,-99.99,Weather View 32 v60,2013-06-25 22:35:00,
2013-06-25 18:40:00,78.8,45.5,29.81,West,266,8.0,13.0,31,0.00,,,-99.99,Weather View 32 v60,2013-06-25 22:40:00,
2013-06-25 18:45:00,78.8,45.5,29.81,West,265,6.0,13.0,31,0.00,,,-99.99,Weather View 32 v60,2013-06-25 22:45:00,
2013-06-25 18:50:00,78.8,44.7,29.81,WSW,250,8.0,13.0,30,0.00,,,-99.99,Weather View 32 v60,2013-06-25 22:50:00,
2013-06-25 18:55:00,78.6,45.4,29.81,West,278,8.0,13.0,31,0.00,,,-99.99,Weather View 32 v60,2013-06-25 22:55:00,
2013-06-25 19:00:00,78.4,45.2,29.81,WNW,302,3.0,11.0,31,0.00,,,-99.99,Weather View 32 v60,2013-06-25 23:00:00,
2013-06-25 19:05:00,78.3,45.1,29.81,WNW,288,4.0,11.0,31,0.00,,,-99.99,Weather View 32 v60,2013-06-25 23:05:00,
2013-06-25 19:10:00,78.3,45.1,29.81,West,263,8.0,11.0,31,0.00,,,-99.99,Weather View 32 v60,2013-06-25 23:10:00,
2013-06-25 19:15:00,78.4,46.0,29.81,WSW,237,5.0,11.0,32,0.00,,,-99.99,Weather View 32 v60,2013-06-25 23:15:00,
2013-06-25 19:25:00,78.6,46.2,29.81,WNW,288,8.0,11.0,32,0.00,,,-99.99,Weather View 32 v60,2013-06-25 23:25:00,
2013-06-25 19:30:00,78.4,45.2,29.81,NW,312,6.0,11.0,31,0.00,,,-99.99,Weather View 32 v60,2013-06-25 23:30:00,
2013-06-25 19:35:00,78.4,46.0,29.81,WSW,247,5.0,11.0,32,0.00,,,-99.99,Weather View 32 v60,2013-06-25 23:35:00,
2013-06-25 19:40:00,78.3,45.9,29.81,WSW,249,3.0,11.0,32,0.00,,,-99.99,Weather View 32 v60,2013-06-25 23:40:00,
2013-06-25 19:45:00,78.3,45.9,29.81,West,271,4.0,10.0,32,0.00,,,-99.99,Weather View 32 v60,2013-06-25 23:45:00,
2013-06-25 19:55:00,77.9,45.6,29.81,West,276,0.0,10.0,32,0.00,,,-99.99,Weather View 32 v60,2013-06-25 23:55:00,
2013-06-25 20:00:00,77.9,45.6,29.81,West,262,0.0,10.0,32,0.00,,,-99.99,Weather View 32 v60,2013-06-26 00:00:00,
2013-06-25 20:05:00,77.7,45.4,29.78,West,267,4.0,10.0,32,0.00,,,-99.99,Weather View 32 v60,2013-06-26 00:05:00,
2013-06-25 20:10:00,77.5,45.3,29.78,WNW,298,2.0,10.0,32,0.00,,,-99.99,Weather View 32 v60,2013-06-26 00:10:00,
2013-06-25 20:15:00,77.5,46.1,29.78,WNW,286,3.0,10.0,33,0.00,,,-99.99,Weather View 32 v60,2013-06-26 00:15:00,
2013-06-25 20:20:00,77.5,46.1,29.81,WNW,284,5.0,10.0,33,0.00,,,-99.99,Weather View 32 v60,2013-06-26 00:20:00,
2013-06-25 20:30:00,77.4,45.9,29.81,West,274,3.0,8.0,33,0.00,,,-99.99,Weather View 32 v60,2013-06-26 00:30:00,
2013-06-25 20:40:00,77.0,45.6,29.81,West,277,4.0,6.0,33,0.00,,,-99.99,Weather View 32 v60,2013-06-26 00:40:00,
2013-06-25 20:45:00,76.8,45.5,29.81,WNW,297,4.0,6.0,33,0.00,,,-99.99,Weather View 32 v60,2013-06-26 00:45:00,
2013-06-25 20:50:00,76.5,45.1,29.78,WNW,289,2.0,6.0,33,0.00,,,-99.99,Weather View 32 v60,2013-06-26 00:50:00,
2013-06-25 20:55:00,76.3,45.8,29.78,WNW,289,0.0,6.0,34,0.00,,,-99.99,Weather View 32 v60,2013-06-26 00:55:00,
2013-06-25 21:00:00,76.1,45.6,29.78,WNW,289,0.0,6.0,34,0.00,,,-99.99,Weather View 32 v60,2013-06-26 01:00:00,
2013-06-25 21:10:00,75.9,45.5,29.78,WNW,289,0.0,6.0,34,0.00,,,-99.99,Weather View 32 v60,2013-06-26 01:10:00,
2013-06-25 21:20:00,75.6,45.9,29.78,WNW,289,0.0,6.0,35,0.00,,,-99.99,Weather View 32 v60,2013-06-26 01:20:00,
2013-06-25 21:25:00,75.4,45.7,29.78,WNW,289,0.0,6.0,35,0.00,,,-99.99,Weather View 32 v60,2013-06-26 01:25:00,
2013-06-25 21:30:00,75.2,45.6,29.78,WNW,289,0.0,6.0,35,0.00,,,-99.99,Weather View 32 v60,2013-06-26 01:30:00,
2013-06-25 21:40:00,74.7,46.6,29.81,WNW,289,0.0,4.0,37,0.00,,,-99.99,Weather View 32 v60,2013-06-26 01:40:00,
2013-06-25 21:45:00,74.5,46.4,29.81,WNW,289,0.0,4.0,37,0.00,,,-99.99,Weather View 32 v60,2013-06-26 01:45:00,
2013-06-25 21:55:00,73.9,46.7,29.81,WNW,289,0.0,0.0,38,0.00,,,-99.99,Weather View 32 v60,2013-06-26 01:55:00,
2013-06-25 22:00:00,73.8,47.2,29.81,WNW,289,0.0,0.0,39,0.00,,,-99.99,Weather View 32 v60,2013-06-26 02:00:00,
2013-06-25 22:05:00,73.4,46.9,29.81,WNW,289,0.0,0.0,39,0.00,,,-99.99,Weather View 32 v60,2013-06-26 02:05:00,
2013-06-25 22:10:00,73.4,46.9,29.81,WNW,289,0.0,0.0,39,0.00,,,-99.99,Weather View 32 v60,2013-06-26 02:10:00,
2013-06-25 22:15:00,0.0,0.0,29.81,WNW,289,0.0,0.0,0,0.00,,,-99.99,Weather View 32 v60,2013-06-26 02:15:00,
2013-06-25 22:25:00,72.3,47.2,29.81,WNW,289,0.0,0.0,41,0.00,,,-99.99,Weather View 32 v60,2013-06-26 02:25:00,
2013-06-25 22:30:00,72.3,47.2,29.81,WNW,289,0.0,0.0,41,0.00,,,-99.99,Weather View 32 v60,2013-06-26 02:30:00,
2013-06-25 22:35:00,72.0,48.2,29.81,WNW,289,0.0,0.0,43,0.00,,,-99.99,Weather View 32 v60,2013-06-26 02:35:00,
2013-06-25 22:40:00,71.6,48.5,29.81,WNW,289,0.0,0.0,44,0.00,,,-99.99,Weather View 32 v60,2013-06-26 02:40:00,
2013-06-25 22:45:00,71.4,48.9,29.81,WNW,289,0.0,0.0,45,0.00,,,-99.99,Weather View 32 v60,2013-06-26 02:45:00,
2013-06-25 22:50:00,71.2,48.1,29.81,WNW,289,0.0,0.0,44,0.00,,,-99.99,Weather View 32 v60,2013-06-26 02:50:00,
2013-06-25 22:55:00,71.2,48.1,29.81,WNW,289,0.0,0.0,44,0.00,,,-99.99,Weather View 32 v60,2013-06-26 02:55:00,
2013-06-25 23:00:00,71.1,48.6,29.81,WNW,289,0.0,0.0,45,0.00,,,-99.99,Weather View 32 v60,2013-06-26 03:00:00,
2013-06-25 23:10:00,70.9,48.4,29.81,WNW,289,0.0,0.0,45,0.00,,,-99.99,Weather View 32 v60,2013-06-26 03:10:00,
2013-06-25 23:15:00,70.7,48.8,29.81,WNW,289,0.0,0.0,46,0.00,,,-99.99,Weather View 32 v60,2013-06-26 03:15:00,
2013-06-25 23:20:00,70.5,48.7,29.81,WNW,289,0.0,0.0,46,0.00,,,-99.99,Weather View 32 v60,2013-06-26 03:20:00,
2013-06-25 23:25:00,70.3,48.5,29.81,WNW,289,0.0,0.0,46,0.00,,,-99.99,Weather View 32 v60,2013-06-26 03:25:00,
2013-06-25 23:30:00,70.2,47.8,29.81,WNW,289,0.0,0.0,45,0.00,,,-99.99,Weather View 32 v60,2013-06-26 03:30:00,
2013-06-25 23:35:00,70.0,47.6,29.81,WNW,289,0.0,0.0,45,0.00,,,-99.99,Weather View 32 v60,2013-06-26 03:35:00,
2013-06-25 23:40:00,70.0,47.6,29.81,WNW,289,0.0,0.0,45,0.00,,,-99.99,Weather View 32 v60,2013-06-26 03:40:00,
2013-06-25 23:46:00,69.8,47.4,29.81,WNW,289,0.0,0.0,45,0.00,,,-99.99,Weather View 32 v60,2013-06-26 03:46:00,
2013-06-25 23:55:00,69.4,47.7,29.81,WNW,289,0.0,0.0,46,0.00,,,-99.99,Weather View 32 v60,2013-06-26 03:55:00,